Regional Weather Roundup
Issued by NWS

Home | Current Version | Previous Version | Text Only | Print | Product List | Glossary Off
Versions: 1 2 3 4 5 6 7 8 9 10 11 12 13 14 15 16 17 18 19 20 21 22 23 24 25 26 27 28 29

000
ASUS45 KCYS 250310
RWRWY

WYOMING REGIONAL WEATHER ROUNDUP
NATIONAL WEATHER SERVICE CHEYENNE WY
900 PM MDT FRI OCT 24 2014

NOTE:  "FAIR" INDICATES FEW OR NO CLOUDS BELOW 12,000 FEET
WITH NO SIGNIFICANT WEATHER AND/OR OBSTRUCTIONS TO VISIBILITY.

WYZ001-250400-
YELLOWSTONE NATIONAL PARK

CITY           SKY/WX    TMP DP  RH WIND       PRES   REMARKS
LK YELLOWSTONE   N/A     33  24  69 NW3       30.28
W YELLOWSTONE  NOT AVBL

$$
WYZ002>013-054>058-071-098>099-250400-
NORTHERN WYOMING

CITY           SKY/WX    TMP DP  RH WIND       PRES   REMARKS
JACKSON        CLEAR     45  27  49 CALM      30.21R
CODY           CLEAR     46  36  66 CALM      30.11
GREYBULL       CLEAR     55  34  45 NW17      30.05R
WORLAND        CLEAR     48  29  47 E3        30.05R
SHERIDAN       CLEAR     41  32  70 CALM      30.12R
BUFFALO        CLEAR     46  32  58 W3        30.15S
GILLETTE       CLEAR     39  30  70 NW3       30.12R
HULETT         CLOUDY    54  30  40 E6        30.14
NEWCASTLE      FAIR      50  32  50 CALM      30.10

$$
WYZ014>020-022>026-101>103-250400-
CENTRAL WYOMING

CITY           SKY/WX    TMP DP  RH WIND       PRES   REMARKS
BIG PINEY      CLEAR     38  20  48 N6        30.27R WCI  33
PINEDALE       CLEAR     37  25  60 CALM      30.29
DUBOIS         FAIR      45  19  36 W13       30.22R
LANDER         CLEAR     58  20  22 S3        30.13R
RIVERTON       CLEAR     58  22  24 NW10      30.13R
CASPER         CLEAR     56  20  24 SW12      30.13R
DOUGLAS        CLEAR     49  20  31 E5        30.12R

$$
WYZ021-027>030-104>119-250400-
SOUTHERN WYOMING

CITY           SKY/WX    TMP DP  RH WIND       PRES   REMARKS
EVANSTON       CLEAR     56  24  29 S5        30.27R
KEMMERER       CLEAR     50  23  34 NW5       30.28S
FORT BRIDGER   FAIR      57  21  25 SW9       30.30R
ROCK SPRINGS   CLEAR     52  27  38 S8        30.26
RAWLINS        CLEAR     52  23  32 SW3       30.27R
SARATOGA       FAIR      46  27  46 CALM      30.31S
LARAMIE        CLEAR     52  21  29 SE5       30.31R
CHEYENNE       CLEAR     56  28  34 W13       30.23S
TORRINGTON     CLEAR     59  28  30 SW8       30.09R
PINE BLUFFS    FAIR      50  30  46 S3        30.18S

$$



USA.gov is the U.S. government's official web portal to all federal, state and local government web resources and services.